timestamp,surface_pressure_avg,surface_temp_avg,battery_voltage,lat,long
2017-09-10 00:00:00+00:00,299.2396,15.55,12.57,47.84626,-54.09684
2017-09-10 00:10:00+00:00,304.6497,15.6,12.57,47.84626,-54.09684
2017-09-10 00:20:00+00:00,316.5164,15.6,12.57,47.84626,-54.09684
2017-09-10 00:30:00+00:00,327.5364,15.5,12.57,47.84626,-54.09684
2017-09-10 00:40:00+00:00,329.1229,15.4,12.57,47.84626,-54.09684
2017-09-10 00:50:00+00:00,330.5413,15.35,12.57,47.84626,-54.09684
2017-09-10 01:00:00+00:00,344.4863,15.36,12.57,47.84626,-54.09684
2017-09-10 01:10:00+00:00,347.9081,15.4,12.57,47.84626,-54.09684
2017-09-10 01:20:00+00:00,346.318,15.4,12.57,47.84626,-54.09684
2017-09-10 01:30:00+00:00,349.3729,15.3,12.57,47.84626,-54.09684
2017-09-10 01:40:00+00:00,358.0796,15.3,12.57,47.84626,-54.09684
2017-09-10 01:50:00+00:00,354.028,15.4,12.57,47.84626,-54.09684
2017-09-10 02:00:00+00:00,348.2347,15.4,12.57,47.84626,-54.09684
2017-09-10 02:10:00+00:00,351.0596,15.4,12.57,47.84626,-54.09684
2017-09-10 02:20:00+00:00,353.9729,15.54,12.57,47.84626,-54.09684
2017-09-10 02:30:00+00:00,347.003,16.0,12.57,47.84626,-54.09684
2017-09-10 02:40:00+00:00,340.5147,16.06,12.57,47.84626,-54.09684
2017-09-10 02:50:00+00:00,340.4763,16.06,12.57,47.84626,-54.09684
2017-09-10 03:00:00+00:00,336.4847,16.1,12.57,47.84626,-54.09684
2017-09-10 03:10:00+00:00,330.9513,16.16,12.57,47.84626,-54.09684
2017-09-10 03:20:00+00:00,330.533,16.19,12.57,47.84626,-54.09684
2017-09-10 03:30:00+00:00,329.0064,16.17,12.57,47.84626,-54.09684
2017-09-10 03:40:00+00:00,320.188,16.0,12.57,47.84626,-54.09684
2017-09-10 03:50:00+00:00,311.8146,15.99,12.57,47.84626,-54.09684
2017-09-10 04:00:00+00:00,307.523,15.94,12.57,47.84626,-54.09684
2017-09-10 04:10:00+00:00,300.998,15.9,12.57,47.84626,-54.09684
2017-09-10 04:20:00+00:00,291.0947,15.9,12.57,47.84626,-54.09684
2017-09-10 04:30:00+00:00,283.208,15.9,12.57,47.84626,-54.09684
2017-09-10 04:40:00+00:00,273.8547,15.9,12.57,47.84626,-54.09684
2017-09-10 04:50:00+00:00,260.7498,15.94,12.57,47.84626,-54.09684
2017-09-10 05:00:00+00:00,250.8131,16.0,12.57,47.84626,-54.09684
2017-09-10 05:10:00+00:00,247.0114,16.0,12.57,47.84626,-54.09684
2017-09-10 05:20:00+00:00,241.4264,16.0,12.57,47.84626,-54.09684
2017-09-10 05:30:00+00:00,232.1014,16.05,12.57,47.84626,-54.09684
2017-09-10 05:40:00+00:00,223.4648,16.1,12.57,47.84626,-54.09684
2017-09-10 05:50:00+00:00,213.8631,16.1,12.57,47.84626,-54.09684
2017-09-10 06:00:00+00:00,203.7998,16.1,12.57,47.84626,-54.09684
2017-09-10 06:10:00+00:00,196.0264,16.0,12.57,47.84626,-54.09684
2017-09-10 06:20:00+00:00,187.3632,16.03,12.57,47.84626,-54.09684
2017-09-10 06:30:00+00:00,178.9415,16.1,12.57,47.84626,-54.09684
2017-09-10 06:40:00+00:00,171.9932,16.1,12.57,47.84626,-54.09684
2017-09-10 06:50:00+00:00,168.4798,16.1,12.57,47.84626,-54.09684
2017-09-10 07:00:00+00:00,165.6048,16.1,12.57,47.84626,-54.09684
2017-09-10 07:10:00+00:00,157.1948,16.0,12.57,47.84626,-54.09684
2017-09-10 07:20:00+00:00,156.2615,15.92,12.57,47.84626,-54.09684
2017-09-10 07:30:00+00:00,161.4949,16.0,12.57,47.84626,-54.09684
2017-09-10 07:40:00+00:00,159.3849,15.99,12.57,47.84626,-54.09684
2017-09-10 07:50:00+00:00,156.8365,15.95,12.57,47.84626,-54.09684
2017-09-10 08:00:00+00:00,163.2632,15.9,12.57,47.84626,-54.09684
2017-09-10 08:10:00+00:00,169.3615,15.9,12.57,47.84626,-54.09684
2017-09-10 08:20:00+00:00,171.5797,15.9,12.57,47.84626,-54.09684
2017-09-10 08:30:00+00:00,175.4031,15.9,12.57,47.84626,-54.09684
2017-09-10 08:40:00+00:00,177.5381,15.9,12.57,47.84626,-54.09684
2017-09-10 08:50:00+00:00,179.9931,15.9,12.57,47.84626,-54.09684
2017-09-10 09:00:00+00:00,187.3732,15.89,12.57,47.84626,-54.09684
2017-09-10 09:10:00+00:00,196.9731,15.89,12.57,47.84626,-54.09684
2017-09-10 09:20:00+00:00,201.6631,15.8,12.57,47.84626,-54.09684
2017-09-10 09:30:00+00:00,205.2915,15.8,12.57,47.84626,-54.09684
2017-09-10 09:40:00+00:00,210.5697,15.8,12.57,47.84626,-54.09684
2017-09-10 09:50:00+00:00,213.2797,15.79,12.57,47.84626,-54.09684
2017-09-10 10:00:00+00:00,217.9698,15.74,12.57,47.84626,-54.09684
2017-09-10 10:10:00+00:00,223.0347,15.7,12.57,47.84626,-54.09684
2017-09-10 10:20:00+00:00,226.4731,15.7,12.57,47.84626,-54.09684
2017-09-10 10:30:00+00:00,230.6047,15.7,12.57,47.84626,-54.09684
2017-09-10 10:40:00+00:00,237.4514,15.7,12.57,47.84626,-54.09684
2017-09-10 10:50:00+00:00,242.7148,15.7,12.57,47.84626,-54.09684
2017-09-10 11:00:00+00:00,243.9265,15.7,12.57,47.84626,-54.09684
2017-09-10 11:10:00+00:00,247.7331,15.7,12.57,47.84626,-54.09684
2017-09-10 11:20:00+00:00,255.8098,15.7,12.57,47.84626,-54.09684
2017-09-10 11:30:00+00:00,261.6364,15.7,12.57,47.84626,-54.09684
2017-09-10 11:40:00+00:00,266.0131,15.69,12.57,47.84626,-54.09684
2017-09-10 11:50:00+00:00,276.1447,15.6,12.57,47.84626,-54.09684
2017-09-10 12:00:00+00:00,287.6713,15.6,12.57,47.84626,-54.09684
2017-09-10 12:10:00+00:00,290.6013,15.6,12.57,47.84626,-54.09684
2017-09-10 12:20:00+00:00,293.483,15.5,12.57,47.84626,-54.09684
2017-09-10 12:30:00+00:00,309.738,15.49,12.57,47.84626,-54.09684
2017-09-10 12:40:00+00:00,323.278,15.49,12.57,47.84626,-54.09684
2017-09-10 12:50:00+00:00,326.6113,15.5,12.57,47.84626,-54.09684
2017-09-10 13:00:00+00:00,330.9529,15.42,12.57,47.84626,-54.09684
2017-09-10 13:10:00+00:00,340.5114,15.45,12.57,47.84626,-54.09684
2017-09-10 13:20:00+00:00,344.8979,15.45,12.57,47.84626,-54.09684
2017-09-10 13:30:00+00:00,344.4563,15.4,12.57,47.84626,-54.09684
2017-09-10 13:40:00+00:00,351.048,15.4,12.57,47.84626,-54.09684
2017-09-10 13:50:00+00:00,359.6512,15.4,12.57,47.84626,-54.09684
2017-09-10 14:00:00+00:00,357.1197,15.4,12.57,47.84626,-54.09684
2017-09-10 14:10:00+00:00,354.0013,15.4,12.57,47.84626,-54.09684
2017-09-10 14:20:00+00:00,355.3962,15.42,12.65,47.84626,-54.09684
2017-09-10 14:30:00+00:00,357.908,15.46,12.65,47.84626,-54.09684
2017-09-10 14:40:00+00:00,350.4462,15.47,12.65,47.84626,-54.09684
2017-09-10 14:50:00+00:00,350.8979,15.48,12.65,47.84626,-54.09684
2017-09-10 15:00:00+00:00,356.5797,15.46,12.57,47.84626,-54.09684
2017-09-10 15:10:00+00:00,350.6946,15.4,12.57,47.84626,-54.09684
2017-09-10 15:20:00+00:00,343.353,15.2,12.65,47.84626,-54.09684
2017-09-10 15:30:00+00:00,344.4547,15.2,12.65,47.84626,-54.09684
2017-09-10 15:40:00+00:00,348.9396,15.4,12.65,47.84626,-54.09684
2017-09-10 15:50:00+00:00,343.6912,15.35,12.65,47.84626,-54.09684
2017-09-10 16:00:00+00:00,339.0863,15.19,12.65,47.84626,-54.09684
2017-09-10 16:10:00+00:00,336.5598,15.3,12.57,47.84626,-54.09684
2017-09-10 16:20:00+00:00,327.3331,15.37,12.65,47.84626,-54.09684
2017-09-10 16:30:00+00:00,313.9147,15.3,12.65,47.84626,-54.09684
2017-09-10 16:40:00+00:00,303.7231,15.21,12.65,47.84626,-54.09684
2017-09-10 16:50:00+00:00,301.8613,15.23,12.73,47.84626,-54.09684
2017-09-10 17:00:00+00:00,296.2314,15.28,12.65,47.84626,-54.09684
2017-09-10 17:10:00+00:00,284.5031,15.3,12.57,47.84626,-54.09684
2017-09-10 17:20:00+00:00,268.9097,15.35,12.65,47.84626,-54.09684
2017-09-10 17:30:00+00:00,258.4814,15.4,12.65,47.84626,-54.09684
2017-09-10 17:40:00+00:00,255.2748,15.4,12.65,47.84626,-54.09684
2017-09-10 17:50:00+00:00,246.2881,15.41,12.65,47.84626,-54.09684
2017-09-10 18:00:00+00:00,231.4081,15.45,12.65,47.84626,-54.09684
2017-09-10 18:10:00+00:00,219.2331,15.43,12.65,47.84626,-54.09684
2017-09-10 18:20:00+00:00,214.8998,15.4,12.65,47.84626,-54.09684
2017-09-10 18:30:00+00:00,201.8614,15.41,12.73,47.84626,-54.09684
2017-09-10 18:40:00+00:00,194.0681,15.41,12.73,47.84626,-54.09684
2017-09-10 18:50:00+00:00,195.1315,15.42,12.73,47.84626,-54.09684
2017-09-10 19:00:00+00:00,192.1532,15.4,12.73,47.84626,-54.09684
2017-09-10 19:10:00+00:00,189.0365,15.42,12.65,47.84626,-54.09684
2017-09-10 19:20:00+00:00,183.2032,15.4,12.73,47.84626,-54.09684
2017-09-10 19:30:00+00:00,177.7464,15.4,12.73,47.84626,-54.09684
2017-09-10 19:40:00+00:00,173.6531,15.4,12.73,47.84626,-54.09684
2017-09-10 19:50:00+00:00,161.8332,15.4,12.73,47.84626,-54.09684
2017-09-10 20:00:00+00:00,161.3865,15.4,12.65,47.84626,-54.09684
2017-09-10 20:10:00+00:00,175.0765,15.4,12.65,47.84626,-54.09684
2017-09-10 20:20:00+00:00,177.9464,15.3,12.65,47.84626,-54.09684
2017-09-10 20:30:00+00:00,178.0698,15.29,12.65,47.84626,-54.09684
2017-09-10 20:40:00+00:00,182.4982,15.3,12.65,47.84626,-54.09684
2017-09-10 20:50:00+00:00,182.2997,15.3,12.65,47.84626,-54.09684
2017-09-10 21:00:00+00:00,186.5448,15.25,12.57,47.84626,-54.09684
2017-09-10 21:10:00+00:00,187.6565,15.3,12.57,47.84626,-54.09684
2017-09-10 21:20:00+00:00,187.3848,15.25,12.65,47.84626,-54.09684
2017-09-10 21:30:00+00:00,190.4015,15.2,12.65,47.84626,-54.09684
2017-09-10 21:40:00+00:00,196.6598,15.1,12.65,47.84626,-54.09684
2017-09-10 21:50:00+00:00,203.2814,15.03,12.65,47.84626,-54.09684
2017-09-10 22:00:00+00:00,198.8881,14.94,12.57,47.84626,-54.09684
2017-09-10 22:10:00+00:00,201.3415,14.8,12.57,47.84626,-54.09684
2017-09-10 22:20:00+00:00,211.7998,14.8,12.57,47.84626,-54.09684
2017-09-10 22:30:00+00:00,219.4281,14.8,12.57,47.84626,-54.09684
2017-09-10 22:40:00+00:00,230.5814,14.8,12.57,47.84626,-54.09684
2017-09-10 22:50:00+00:00,239.7163,14.8,12.57,47.84626,-54.09684
2017-09-10 23:00:00+00:00,238.7281,14.8,12.57,47.84626,-54.09684
2017-09-10 23:10:00+00:00,235.9015,14.8,12.57,47.84626,-54.09684
2017-09-10 23:20:00+00:00,238.8848,14.8,12.57,47.84626,-54.09684
2017-09-10 23:30:00+00:00,246.6581,14.87,12.57,47.84626,-54.09684
2017-09-10 23:40:00+00:00,252.7081,15.04,12.57,47.84626,-54.09684
2017-09-10 23:50:00+00:00,257.8165,15.1,12.57,47.84626,-54.09684
